| time (UTC) | temp F | wind direction | speed knots | gust knots | rain 1hr in | rain 24hr in | rain mn in | humidity % | barometer mb |
| 20260508025114 | 46 | 266 | 0.0 | 0.0 | 0.00 | 0.00 | 0.00 | 82 | 1007.4 |
| 20260508024525 | 46 | 266 | 0.0 | 0.0 | 0.00 | 0.00 | 0.00 | 82 | 1007.4 |
| 20260508023946 | 46 | 259 | 0.0 | 0.0 | 0.00 | 0.00 | 0.00 | 82 | 1007.1 |
| 20260508023341 | 46 | 261 | 0.0 | 0.0 | 0.00 | 0.00 | 0.00 | 80 | 1007.1 |
| 20260508022723 | 46 | 280 | 0.0 | 0.0 | 0.00 | 0.00 | 0.00 | 79 | 1007.1 |
| 20260508021515 | 47 | 272 | 0.0 | 0.0 | 0.00 | 0.00 | 0.00 | 75 | 1007.1 |
| 20260508020945 | 47 | 263 | 0.0 | 0.0 | 0.00 | 0.00 | 0.00 | 75 | 1007.1 |
| 20260508020349 | 47 | 256 | 0.0 | 0.0 | 0.00 | 0.00 | 0.00 | 74 | 1006.7 |
| 20260508015738 | 48 | 260 | 0.0 | 0.0 | 0.00 | 0.00 | 0.00 | 74 | 1006.7 |
| 20260508015145 | 48 | 260 | 0.0 | 0.0 | 0.00 | 0.00 | 0.00 | 76 | 1006.7 |
| 20260508014517 | 48 | 258 | 0.0 | 0.0 | 0.00 | 0.00 | 0.00 | 76 | 1006.4 |
| 20260508012725 | 49 | 255 | 0.0 | 0.0 | 0.00 | 0.00 | 0.00 | 71 | 1006.4 |
| 20260508011528 | 50 | 244 | 0.0 | 0.0 | 0.00 | 0.00 | 0.00 | 72 | 1006.0 |
| 20260508010935 | 50 | 256 | 0.0 | 0.0 | 0.00 | 0.00 | 0.00 | 71 | 1006.0 |
| 20260508010349 | 50 | 249 | 0.0 | 0.0 | 0.00 | 0.00 | 0.00 | 70 | 1006.0 |
| 20260508005736 | 51 | 248 | 0.0 | 0.0 | 0.00 | 0.00 | 0.00 | 68 | 1005.7 |
| 20260508003908 | 53 | 255 | 0.0 | 0.0 | 0.00 | 0.00 | 0.00 | 65 | 1005.7 |
| 20260508003340 | 54 | 260 | 0.0 | 0.0 | 0.00 | 0.00 | 0.00 | 62 | 1005.7 |
| 20260508002734 | 55 | 261 | 0.0 | 0.0 | 0.00 | 0.00 | 0.00 | 59 | 1005.7 |
| 20260508002110 | 56 | 249 | 0.0 | 0.0 | 0.00 | 0.00 | 0.00 | 60 | 1005.4 |
| 20260508001532 | 58 | 277 | 0.0 | 0.0 | 0.00 | 0.00 | 0.00 | 53 | 1005.4 |
| 20260508000949 | 58 | 228 | 0.9 | 0.9 | 0.00 | 0.00 | 0.00 | 48 | 1005.4 |
| 20260508000335 | 59 | 241 | 2.6 | 2.6 | 0.00 | 0.00 | 0.00 | 44 | 1005.4 |
| 20260507235747 | 60 | 244 | 3.5 | 5.2 | 0.00 | 0.00 | 0.00 | 45 | 1005.4 |
| 20260507235119 | 60 | 231 | 4.3 | 7.0 | 0.00 | 0.00 | 0.00 | 41 | 1005.4 |
| 20260507234551 | 61 | 213 | 4.3 | 5.2 | 0.00 | 0.00 | 0.00 | 44 | 1005.0 |
| 20260507233938 | 61 | 243 | 0.9 | 1.7 | 0.00 | 0.00 | 0.00 | 44 | 1005.0 |
| 20260507233347 | 62 | 247 | 3.5 | 5.2 | 0.00 | 0.00 | 0.00 | 42 | 1005.0 |
| 20260507231535 | 63 | 279 | 2.6 | 2.6 | 0.00 | 0.00 | 0.00 | 40 | 1005.0 |
| 20260507225744 | 63 | 261 | 3.5 | 5.2 | 0.00 | 0.00 | 0.00 | 37 | 1004.7 |
| 20260507225120 | 64 | 263 | 4.3 | 6.1 | 0.00 | 0.00 | 0.00 | 38 | 1005.0 |
| 20260507224527 | 64 | 261 | 2.6 | 2.6 | 0.00 | 0.00 | 0.00 | 38 | 1004.7 |
| 20260507223918 | 63 | 241 | 3.5 | 3.5 | 0.00 | 0.00 | 0.00 | 42 | 1004.7 |
| 20260507223338 | 63 | 231 | 4.3 | 6.1 | 0.00 | 0.00 | 0.00 | 39 | 1004.7 |
| 20260507222719 | 64 | 216 | 3.5 | 3.5 | 0.00 | 0.00 | 0.00 | 39 | 1004.7 |
| 20260507221516 | 64 | 289 | 7.8 | 13.0 | 0.00 | 0.00 | 0.00 | 36 | 1004.7 |
| 20260507220312 | 65 | 244 | 3.5 | 5.2 | 0.00 | 0.00 | 0.00 | 42 | 1004.4 |
| 20260507215738 | 65 | 258 | 4.3 | 5.2 | 0.00 | 0.00 | 0.00 | 42 | 1004.4 |
| 20260507215144 | 65 | 261 | 4.3 | 6.1 | 0.00 | 0.00 | 0.00 | 39 | 1004.4 |
| 20260507213944 | 65 | 232 | 3.5 | 5.2 | 0.00 | 0.00 | 0.00 | 41 | 1004.0 |
| 20260507212737 | 65 | 247 | 4.3 | 7.0 | 0.00 | 0.00 | 0.00 | 43 | 1004.4 |
| 20260507211532 | 64 | 230 | 5.2 | 7.8 | 0.00 | 0.00 | 0.00 | 43 | 1004.0 |
| 20260507210928 | 64 | 248 | 4.3 | 7.8 | 0.00 | 0.00 | 0.00 | 44 | 1004.0 |
| 20260507210344 | 62 | 206 | 4.3 | 6.1 | 0.00 | 0.00 | 0.00 | 45 | 1003.7 |
| 20260507204547 | 65 | 193 | 3.5 | 5.2 | 0.00 | 0.00 | 0.00 | 42 | 1004.0 |
| 20260507202737 | 64 | 205 | 5.2 | 6.1 | 0.00 | 0.00 | 0.00 | 44 | 1003.7 |
| 20260507202152 | 63 | 273 | 3.5 | 5.2 | 0.00 | 0.00 | 0.00 | 46 | 1004.0 |
| 20260507201538 | 64 | 290 | 5.2 | 7.8 | 0.00 | 0.00 | 0.00 | 46 | 1003.7 |
| 20260507200938 | 62 | 297 | 3.5 | 5.2 | 0.00 | 0.00 | 0.00 | 50 | 1004.0 |
| 20260507195752 | 65 | 280 | 3.5 | 3.5 | 0.00 | 0.00 | 0.00 | 43 | 1004.0 |
| 20260507195151 | 66 | 241 | 5.2 | 6.1 | 0.00 | 0.00 | 0.00 | 48 | 1004.0 |
| 20260507194514 | 65 | 228 | 2.6 | 2.6 | 0.00 | 0.00 | 0.00 | 44 | 1004.0 |
| 20260507193951 | 64 | 273 | 3.5 | 5.2 | 0.00 | 0.00 | 0.00 | 50 | 1004.0 |
| 20260507192732 | 65 | 214 | 6.1 | 7.8 | 0.00 | 0.00 | 0.00 | 44 | 1004.0 |
| 20260507192146 | 64 | 216 | 4.3 | 6.1 | 0.00 | 0.00 | 0.00 | 45 | 1004.0 |
| 20260507191535 | 64 | 235 | 4.3 | 6.1 | 0.00 | 0.00 | 0.00 | 44 | 1004.4 |
| 20260507190936 | 64 | 7 | 2.6 | 2.6 | 0.00 | 0.00 | 0.00 | 50 | 1004.4 |
| 20260507185724 | 64 | 335 | 3.5 | 3.5 | 0.00 | 0.00 | 0.00 | 48 | 1004.4 |
| 20260507185150 | 64 | 276 | 3.5 | 3.5 | 0.00 | 0.00 | 0.00 | 48 | 1004.4 |
| 20260507184549 | 62 | 275 | 2.6 | 2.6 | 0.00 | 0.00 | 0.00 | 52 | 1004.7 |
| 20260507183951 | 63 | 275 | 3.5 | 3.5 | 0.00 | 0.00 | 0.00 | 48 | 1004.7 |
| 20260507183308 | 62 | 274 | 3.5 | 3.5 | 0.00 | 0.00 | 0.00 | 55 | 1004.7 |
| 20260507182714 | 62 | 288 | 2.6 | 2.6 | 0.00 | 0.00 | 0.00 | 49 | 1004.7 |
| 20260507182150 | 63 | 289 | 3.5 | 3.5 | 0.00 | 0.00 | 0.00 | 54 | 1004.7 |
| 20260507181510 | 62 | 333 | 1.7 | 1.7 | 0.00 | 0.00 | 0.00 | 52 | 1004.7 |
| 20260507180928 | 63 | 238 | 6.1 | 7.0 | 0.00 | 0.00 | 0.00 | 51 | 1004.7 |
| 20260507180324 | 64 | 246 | 2.6 | 3.5 | 0.00 | 0.00 | 0.00 | 56 | 1004.7 |
| 20260507174520 | 61 | 196 | 1.7 | 2.6 | 0.00 | 0.00 | 0.00 | 52 | 1005.0 |
| 20260507173945 | 63 | 237 | 2.6 | 3.5 | 0.00 | 0.00 | 0.00 | 52 | 1005.0 |
| 20260507172732 | 62 | 278 | 2.6 | 3.5 | 0.00 | 0.00 | 0.00 | 56 | 1005.0 |
| 20260507172129 | 62 | 278 | 1.7 | 1.7 | 0.00 | 0.00 | 0.00 | 53 | 1005.0 |
| 20260507170911 | 60 | 222 | 2.6 | 3.5 | 0.00 | 0.00 | 0.00 | 62 | 1005.0 |
| 20260507170321 | 62 | 233 | 4.3 | 7.8 | 0.00 | 0.00 | 0.00 | 55 | 1005.0 |
| 20260507165750 | 63 | 248 | 1.7 | 2.6 | 0.00 | 0.00 | 0.00 | 53 | 1005.0 |
| 20260507165135 | 62 | 315 | 4.3 | 5.2 | 0.00 | 0.00 | 0.00 | 55 | 1005.4 |
| 20260507163923 | 61 | 349 | 2.6 | 2.6 | 0.00 | 0.00 | 0.00 | 56 | 1005.4 |
| 20260507162722 | 60 | 278 | 1.7 | 2.6 | 0.00 | 0.00 | 0.00 | 55 | 1005.7 |
| 20260507162152 | 61 | 271 | 3.5 | 5.2 | 0.00 | 0.00 | 0.00 | 54 | 1005.4 |
| 20260507161555 | 60 | 251 | 3.5 | 5.2 | 0.00 | 0.00 | 0.00 | 58 | 1005.7 |
| 20260507160923 | 61 | 221 | 3.5 | 5.2 | 0.00 | 0.00 | 0.00 | 59 | 1005.7 |
| 20260507160346 | 59 | 248 | 1.7 | 2.6 | 0.00 | 0.00 | 0.00 | 64 | 1005.7 |
| 20260507155731 | 60 | 316 | 2.6 | 5.2 | 0.00 | 0.00 | 0.00 | 59 | 1005.7 |
| 20260507155123 | 60 | 273 | 0.9 | 0.9 | 0.00 | 0.00 | 0.00 | 57 | 1005.7 |
| 20260507154519 | 60 | 247 | 0.9 | 1.7 | 0.00 | 0.00 | 0.00 | 57 | 1005.7 |
| 20260507153911 | 60 | 250 | 0.0 | 0.0 | 0.00 | 0.00 | 0.00 | 57 | 1005.7 |
| 20260507153315 | 59 | 217 | 0.9 | 1.7 | 0.00 | 0.00 | 0.00 | 57 | 1006.0 |
| 20260507152750 | 58 | 260 | 1.7 | 1.7 | 0.00 | 0.00 | 0.00 | 63 | 1005.7 |
| 20260507151534 | 59 | 238 | 0.0 | 0.9 | 0.00 | 0.00 | 0.00 | 61 | 1006.0 |
| 20260507150347 | 59 | 252 | 2.6 | 2.6 | 0.00 | 0.00 | 0.00 | 58 | 1006.0 |
| 20260507145715 | 58 | 220 | 1.7 | 1.7 | 0.00 | 0.00 | 0.00 | 61 | 1006.0 |
| 20260507145111 | 58 | 236 | 0.9 | 0.9 | 0.00 | 0.00 | 0.00 | 58 | 1006.0 |
| 20260507144515 | 58 | 262 | 2.6 | 2.6 | 0.00 | 0.00 | 0.00 | 64 | 1005.7 |
| 20260507143939 | 58 | 259 | 2.6 | 3.5 | 0.00 | 0.00 | 0.00 | 59 | 1005.7 |
| 20260507143320 | 57 | 207 | 1.7 | 2.6 | 0.00 | 0.00 | 0.00 | 60 | 1006.0 |
| 20260507142123 | 56 | 205 | 0.9 | 0.9 | 0.00 | 0.00 | 0.00 | 66 | 1006.0 |
| 20260507141517 | 57 | 284 | 3.5 | 3.5 | 0.00 | 0.00 | 0.00 | 66 | 1006.0 |
| 20260507140926 | 56 | 274 | 1.7 | 2.6 | 0.00 | 0.00 | 0.00 | 67 | 1006.0 |
| 20260507140342 | 56 | 210 | 0.9 | 1.7 | 0.00 | 0.00 | 0.00 | 66 | 1006.4 |
| 20260507135143 | 55 | 193 | 2.6 | 3.5 | 0.00 | 0.00 | 0.00 | 65 | 1006.4 |
| 20260507134519 | 55 | 282 | 0.9 | 0.9 | 0.00 | 0.00 | 0.00 | 66 | 1006.7 |
| 20260507133319 | 54 | 224 | 1.7 | 1.7 | 0.00 | 0.00 | 0.00 | 73 | 1006.4 |
| 20260507132743 | 53 | 223 | 0.9 | 0.9 | 0.00 | 0.00 | 0.00 | 73 | 1006.7 |
| 20260507132122 | 53 | 201 | 0.9 | 1.7 | 0.00 | 0.00 | 0.00 | 74 | 1006.7 |
| 20260507130911 | 51 | 240 | 0.0 | 0.9 | 0.00 | 0.00 | 0.00 | 84 | 1006.7 |
| 20260507130311 | 50 | 234 | 0.9 | 0.9 | 0.00 | 0.00 | 0.00 | 88 | 1006.7 |
| 20260507124550 | 49 | 274 | 0.0 | 0.0 | 0.00 | 0.00 | 0.00 | 98 | 1006.7 |
| 20260507123943 | 49 | 290 | 0.0 | 0.0 | 0.00 | 0.00 | 0.00 | 99 | 1006.7 |
| 20260507123343 | 49 | 289 | 0.0 | 0.0 | 0.00 | 0.00 | 0.00 | 99 | 1006.7 |
| 20260507122748 | 49 | 289 | 0.0 | 0.0 | 0.00 | 0.00 | 0.00 | 99 | 1006.7 |
| 20260507122127 | 48 | 273 | 0.0 | 0.0 | 0.00 | 0.00 | 0.00 | 99 | 1006.7 |
| 20260507120340 | 48 | 286 | 0.0 | 0.0 | 0.00 | 0.00 | 0.00 | 99 | 1007.1 |
| 20260507115712 | 48 | 286 | 0.0 | 0.0 | 0.00 | 0.00 | 0.00 | 99 | 1006.7 |
| 20260507115146 | 48 | 284 | 0.0 | 0.0 | 0.00 | 0.00 | 0.00 | 99 | 1006.7 |
| 20260507114527 | 47 | 287 | 0.0 | 0.0 | 0.00 | 0.00 | 0.00 | 99 | 1006.7 |
| 20260507113916 | 47 | 293 | 0.0 | 0.0 | 0.00 | 0.00 | 0.00 | 99 | 1006.7 |
| 20260507113326 | 47 | 294 | 0.0 | 0.0 | 0.00 | 0.00 | 0.00 | 99 | 1006.7 |
| 20260507112752 | 47 | 291 | 0.0 | 0.0 | 0.00 | 0.00 | 0.00 | 99 | 1006.7 |
| 20260507111513 | 46 | 333 | 0.0 | 0.0 | 0.00 | 0.00 | 0.00 | 99 | 1006.4 |
| 20260507110940 | 46 | 319 | 0.0 | 0.0 | 0.00 | 0.00 | 0.00 | 99 | 1006.4 |
| 20260507110320 | 46 | 282 | 0.0 | 0.0 | 0.00 | 0.00 | 0.00 | 99 | 1006.4 |
| 20260507105717 | 46 | 284 | 0.0 | 0.0 | 0.00 | 0.00 | 0.00 | 99 | 1006.0 |
| 20260507105143 | 45 | 286 | 0.0 | 0.0 | 0.00 | 0.00 | 0.00 | 99 | 1006.0 |
| 20260507104546 | 45 | 290 | 0.0 | 0.0 | 0.00 | 0.00 | 0.00 | 99 | 1006.0 |
| 20260507103320 | 45 | 268 | 0.0 | 0.0 | 0.00 | 0.00 | 0.00 | 99 | 1006.0 |
| 20260507102729 | 45 | 281 | 0.0 | 0.0 | 0.00 | 0.00 | 0.00 | 99 | 1005.7 |
| 20260507101525 | 45 | 277 | 0.0 | 0.0 | 0.00 | 0.00 | 0.00 | 99 | 1005.7 |
| 20260507100912 | 45 | 313 | 0.0 | 0.0 | 0.00 | 0.00 | 0.00 | 99 | 1006.0 |
| 20260507100332 | 45 | 285 | 0.0 | 0.0 | 0.00 | 0.00 | 0.00 | 99 | 1006.0 |
| 20260507095740 | 46 | 276 | 0.0 | 0.0 | 0.00 | 0.00 | 0.00 | 99 | 1005.4 |
| 20260507095110 | 46 | 278 | 0.0 | 0.0 | 0.00 | 0.00 | 0.00 | 99 | 1006.0 |
| 20260507093930 | 46 | 272 | 0.0 | 0.0 | 0.00 | 0.00 | 0.00 | 99 | 1006.0 |
| 20260507093344 | 45 | 207 | 0.0 | 0.0 | 0.00 | 0.00 | 0.00 | 99 | 1006.0 |
| 20260507092744 | 46 | 272 | 0.0 | 0.0 | 0.00 | 0.00 | 0.00 | 99 | 1006.0 |
| 20260507092130 | 45 | 273 | 0.0 | 0.0 | 0.00 | 0.00 | 0.00 | 98 | 1006.0 |
| 20260507091510 | 46 | 272 | 0.0 | 0.0 | 0.00 | 0.00 | 0.00 | 98 | 1005.7 |
| 20260507090939 | 46 | 207 | 0.0 | 0.0 | 0.00 | 0.00 | 0.00 | 98 | 1006.0 |
| 20260507090318 | 46 | 259 | 0.0 | 0.0 | 0.00 | 0.00 | 0.00 | 98 | 1006.0 |
| 20260507085715 | 47 | 260 | 0.0 | 0.0 | 0.00 | 0.00 | 0.00 | 98 | 1006.0 |
| 20260507085109 | 47 | 260 | 0.0 | 0.0 | 0.00 | 0.00 | 0.00 | 98 | 1005.7 |
| 20260507084541 | 47 | 271 | 0.0 | 0.0 | 0.00 | 0.00 | 0.00 | 97 | 1005.7 |
| 20260507083925 | 47 | 275 | 0.0 | 0.0 | 0.00 | 0.00 | 0.00 | 97 | 1005.7 |
| 20260507083327 | 48 | 280 | 0.0 | 0.0 | 0.00 | 0.00 | 0.00 | 97 | 1005.7 |
| 20260507082121 | 48 | 262 | 0.0 | 0.0 | 0.00 | 0.00 | 0.00 | 96 | 1005.7 |
| 20260507081530 | 48 | 270 | 0.0 | 0.0 | 0.00 | 0.00 | 0.00 | 96 | 1006.0 |
| 20260507080917 | 48 | 263 | 0.0 | 0.0 | 0.00 | 0.00 | 0.00 | 95 | 1005.4 |
| 20260507080337 | 49 | 280 | 0.0 | 0.0 | 0.00 | 0.00 | 0.00 | 95 | 1005.7 |
| 20260507075716 | 49 | 261 | 0.0 | 0.0 | 0.00 | 0.00 | 0.00 | 95 | 1005.7 |
| 20260507075135 | 49 | 268 | 0.0 | 0.0 | 0.00 | 0.00 | 0.00 | 95 | 1006.0 |
| 20260507074541 | 49 | 270 | 0.0 | 0.0 | 0.00 | 0.00 | 0.00 | 94 | 1006.0 |
| 20260507073952 | 49 | 264 | 0.0 | 0.0 | 0.00 | 0.00 | 0.00 | 94 | 1006.0 |
| 20260507073328 | 50 | 261 | 0.0 | 0.0 | 0.00 | 0.00 | 0.00 | 94 | 1006.0 |
| 20260507072748 | 49 | 257 | 0.0 | 0.0 | 0.00 | 0.00 | 0.00 | 94 | 1006.0 |
| 20260507072116 | 50 | 270 | 0.0 | 0.0 | 0.00 | 0.00 | 0.00 | 94 | 1006.0 |
| 20260507071537 | 50 | 260 | 0.0 | 0.0 | 0.00 | 0.00 | 0.00 | 93 | 1006.0 |
| 20260507070310 | 50 | 261 | 0.0 | 0.0 | 0.00 | 0.00 | 0.00 | 93 | 1005.7 |
| 20260507065753 | 50 | 264 | 0.0 | 0.0 | 0.00 | 0.00 | 0.00 | 92 | 1006.0 |
| 20260507064514 | 50 | 264 | 0.0 | 0.0 | 0.00 | 0.00 | 0.00 | 92 | 1006.0 |
| 20260507063913 | 50 | 262 | 0.0 | 0.0 | 0.00 | 0.00 | 0.00 | 92 | 1006.0 |
| 20260507063347 | 50 | 260 | 0.0 | 0.0 | 0.00 | 0.00 | 0.00 | 92 | 1006.0 |
| 20260507062716 | 51 | 263 | 0.0 | 0.0 | 0.00 | 0.00 | 0.00 | 92 | 1005.7 |
| 20260507062130 | 51 | 260 | 0.0 | 0.0 | 0.00 | 0.00 | 0.00 | 91 | 1005.7 |
| 20260507061517 | 51 | 260 | 0.0 | 0.0 | 0.00 | 0.00 | 0.00 | 91 | 1005.7 |
| 20260507060928 | 51 | 260 | 0.0 | 0.0 | 0.00 | 0.00 | 0.00 | 91 | 1006.0 |
| 20260507060317 | 51 | 264 | 0.0 | 0.0 | 0.00 | 0.00 | 0.00 | 91 | 1006.0 |
| 20260507055734 | 51 | 264 | 0.0 | 0.0 | 0.00 | 0.00 | 0.00 | 91 | 1006.0 |
| 20260507055110 | 51 | 257 | 0.0 | 0.0 | 0.00 | 0.00 | 0.00 | 90 | 1006.0 |
| 20260507053926 | 51 | 260 | 0.0 | 0.0 | 0.00 | 0.00 | 0.00 | 91 | 1006.0 |
| 20260507052712 | 51 | 256 | 0.0 | 0.0 | 0.00 | 0.00 | 0.00 | 91 | 1006.0 |
| 20260507052147 | 51 | 265 | 0.0 | 0.0 | 0.00 | 0.00 | 0.00 | 90 | 1006.4 |
| 20260507051524 | 51 | 258 | 0.0 | 0.0 | 0.00 | 0.00 | 0.00 | 90 | 1006.0 |
| 20260507050911 | 51 | 263 | 0.0 | 0.0 | 0.00 | 0.00 | 0.00 | 90 | 1006.4 |
| 20260507050342 | 51 | 256 | 0.0 | 0.0 | 0.00 | 0.00 | 0.00 | 90 | 1006.4 |
| 20260507045750 | 51 | 266 | 0.0 | 0.0 | 0.00 | 0.00 | 0.00 | 90 | 1006.4 |
| 20260507045142 | 52 | 260 | 0.0 | 0.0 | 0.00 | 0.00 | 0.00 | 90 | 1006.4 |
| 20260507044539 | 52 | 263 | 0.0 | 0.0 | 0.00 | 0.00 | 0.00 | 90 | 1006.4 |
| 20260507043954 | 52 | 260 | 0.0 | 0.0 | 0.00 | 0.00 | 0.00 | 90 | 1006.4 |
| 20260507041541 | 52 | 283 | 0.0 | 0.0 | 0.00 | 0.00 | 0.00 | 90 | 1006.4 |
| 20260507040932 | 52 | 303 | 0.0 | 0.0 | 0.00 | 0.00 | 0.00 | 90 | 1006.4 |
| 20260507040332 | 52 | 282 | 0.0 | 0.0 | 0.00 | 0.00 | 0.00 | 90 | 1006.0 |
| 20260507035713 | 52 | 291 | 0.0 | 0.0 | 0.00 | 0.00 | 0.55 | 90 | 1006.0 |
| 20260507035145 | 52 | 282 | 0.0 | 0.0 | 0.00 | 0.00 | 0.55 | 90 | 1006.0 |
| 20260507034518 | 52 | 275 | 0.0 | 0.0 | 0.00 | 0.00 | 0.55 | 89 | 1006.0 |
| 20260507033911 | 52 | 268 | 0.0 | 0.0 | 0.00 | 0.00 | 0.55 | 90 | 1006.0 |
| 20260507033343 | 53 | 269 | 0.0 | 0.0 | 0.00 | 0.00 | 0.55 | 91 | 1005.7 |
| 20260507032121 | 53 | 299 | 0.0 | 0.0 | 0.00 | 0.00 | 0.55 | 91 | 1006.0 |
| 20260507030950 | 53 | 321 | 0.0 | 0.0 | 0.00 | 0.00 | 0.55 | 95 | 1005.7 |
| 20260507030351 | 54 | 286 | 0.0 | 0.0 | 0.00 | 0.00 | 0.55 | 95 | 1006.0 |
| 20260507025726 | 54 | 270 | 0.0 | 0.0 | 0.00 | 0.00 | 0.55 | 96 | 1006.0 |